Вернуться в каталог

COSMOS 2483

АктивенНавигацияPO
NORAD 39058·PAYLOAD·🇷🇺 Russia

Запущен Jan 15, 2013 с Plesetsk Cosmodrome

Loading…

Ближайшие Пролёты (ближайшие 24 часа)

TLE

СвежийSource: Space-Track

Эпоха: Sep 14, 2026, 15:03 UTC

1 39058U 13001B   26257.62741806  .00000195  00000-0  13177-2 0  9992
2 39058  82.5040 159.1891 0016009 173.2531 186.8767 12.44027193612711

Отслеживайте COSMOS 2483 в реальном времени с AllMySat

Download on the App Store